Tracking 29892 objects as of 21-Nov-2024
HD Live streaming from Space Station
objects crossing your sky now

FENGYUN 1C DEB

Track FENGYUN 1C DEB now!
10-day predictions


NORAD ID: 30880
Int'l Code: 1999-025AXS
Perigee: 808.1 km
Apogee: 842.6 km
Inclination: 98.8 °
Period: 101.3 minutes
Semi major axis: 7196 km
RCS: 0.0143 m2 (small)
Launch date: May 10, 1999
Source: People's Republic of China (PRC)
Launch site: Taiyaun Space Center, China (TSC)

Note: This is SATELLITE DEBRIS
Your satellite tracking list
Your tracking list is empty




NASA's NSSDC Master Catalog

Two Line Element Set (TLE):
1 30880U 99025AXS 24325.82975611  .00005205  00000-0  23628-2 0  9994
2 30880  98.8230  30.9492 0024006 144.2911 215.9878 14.22110247912075
Source of the keplerian elements: AFSPC